TimeCST,TemperatureF,Dew PointF,Humidity,Sea Level PressureIn,VisibilityMPH,Wind Direction,Wind SpeedMPH,Gust SpeedMPH,PrecipitationIn,Events,Conditions,WindDirDegrees,DateUTC
12:52 AM,48.0,30.0,50,30.35,10.0,North,15.0,-,N/A,,Clear,10,2014-01-06 06:52:00
1:52 AM,46.0,25.0,44,30.38,10.0,North,21.9,29.9,N/A,,Clear,10,2014-01-06 07:52:00
2:52 AM,44.1,28.0,53,30.40,10.0,North,15.0,-,N/A,,Clear,360,2014-01-06 08:52:00
3:52 AM,43.0,26.1,51,30.43,10.0,North,18.4,-,N/A,,Clear,350,2014-01-06 09:52:00
4:52 AM,42.1,24.1,49,30.45,10.0,North,13.8,-,N/A,,Clear,350,2014-01-06 10:52:00
5:52 AM,42.1,24.1,49,30.48,10.0,North,15.0,-,N/A,,Clear,350,2014-01-06 11:52:00
6:52 AM,39.9,24.1,53,30.51,10.0,North,17.3,-,N/A,,Clear,350,2014-01-06 12:52:00
7:52 AM,39.9,24.1,53,30.55,10.0,North,16.1,-,N/A,,Clear,350,2014-01-06 13:52:00
8:52 AM,39.9,24.1,53,30.59,10.0,North,17.3,-,N/A,,Clear,350,2014-01-06 14:52:00
9:52 AM,42.1,25.0,51,30.64,10.0,North,15.0,-,N/A,,Mostly Cloudy,360,2014-01-06 15:52:00
10:52 AM,42.1,24.1,49,30.64,10.0,North,19.6,25.3,N/A,,Mostly Cloudy,360,2014-01-06 16:52:00
11:52 AM,41.0,25.0,53,30.65,10.0,North,20.7,-,N/A,,Overcast,360,2014-01-06 17:52:00
12:01 PM,41.0,26.6,57,30.64,10.0,North,18.4,-,N/A,,Overcast,360,2014-01-06 18:01:00
12:52 PM,39.9,26.1,58,30.62,10.0,North,18.4,26.5,N/A,,Overcast,10,2014-01-06 18:52:00
1:52 PM,39.9,26.1,58,30.60,10.0,North,16.1,-,N/A,,Overcast,10,2014-01-06 19:52:00
2:47 PM,41.0,28.4,61,30.60,10.0,North,15.0,23.0,N/A,,Mostly Cloudy,10,2014-01-06 20:47:00
2:52 PM,41.0,28.0,60,30.61,10.0,North,17.3,23.0,N/A,,Scattered Clouds,360,2014-01-06 20:52:00
3:52 PM,41.0,27.0,57,30.62,10.0,North,15.0,-,N/A,,Partly Cloudy,360,2014-01-06 21:52:00
4:52 PM,39.9,26.1,58,30.63,10.0,North,13.8,-,N/A,,Overcast,350,2014-01-06 22:52:00
5:52 PM,39.0,24.1,55,30.63,10.0,North,12.7,-,0.00,,Overcast,360,2014-01-06 23:52:00
6:52 PM,37.9,28.0,68,30.64,10.0,NNW,10.4,-,0.00,Rain,Light Rain,340,2014-01-07 00:52:00
7:52 PM,37.9,26.1,62,30.67,10.0,North,11.5,-,0.00,,Mostly Cloudy,350,2014-01-07 01:52:00
8:52 PM,37.9,24.1,57,30.69,10.0,NNW,12.7,-,N/A,,Overcast,330,2014-01-07 02:52:00
9:52 PM,37.0,21.9,54,30.68,10.0,NNW,12.7,-,0.00,Rain,Light Rain,340,2014-01-07 03:52:00
10:52 PM,37.0,23.0,57,30.67,10.0,NNW,11.5,-,0.00,Rain,Light Rain,340,2014-01-07 04:52:00
11:52 PM,37.0,21.9,54,30.66,10.0,NNW,9.2,-,0.00,,Overcast,340,2014-01-07 05:52:00